Location: Unspecified
(29.8274°N, 0.0000°E)
Time: 10:34:48
(UTC+00:00)

CZ-6A DEB - Visible Passes

Search period start: 04 April 2026 00:00
Search period end: 14 April 2026 00:00
Orbit: 809 x 983 km, 98.9° (Epoch: 28 March)

Date Brightness Start Highest point End Pass type
(mag) Time Alt. Az. Time Alt. Az. Time Alt. Az.
4 Apr ? 02:45:19 10° NE 02:49:36 20° E 02:52:37 14° SE visible
4 Apr ? 04:25:32 10° N 04:31:21 47° WNW 04:35:35 18° SW visible
5 Apr ? 02:46:42 10° NE 02:51:04 20° E 02:54:11 14° SE visible
5 Apr ? 04:27:01 10° N 04:32:48 46° WNW 04:37:09 17° SW visible
6 Apr ? 02:48:06 10° NE 02:52:32 21° E 02:55:44 14° SE visible
6 Apr ? 04:28:31 10° N 04:34:14 44° WNW 04:38:42 16° SW visible
7 Apr ? 02:49:29 10° NE 02:53:59 22° E 02:57:17 14° SE visible
7 Apr ? 04:30:00 10° N 04:35:41 43° WNW 04:40:15 15° SW visible
8 Apr ? 02:50:53 10° NE 02:55:27 22° E 02:58:50 14° SE visible
8 Apr ? 04:31:30 10° N 04:37:07 41° WNW 04:41:48 14° SW visible
9 Apr ? 02:52:16 10° NE 02:56:55 23° E 03:00:23 14° SE visible
9 Apr ? 04:32:59 10° N 04:38:33 40° WNW 04:43:20 13° SW visible
10 Apr ? 02:53:40 10° NE 02:58:21 24° E 03:01:54 14° SE visible
10 Apr ? 04:34:27 10° N 04:39:58 38° WNW 04:44:52 12° SW visible
11 Apr ? 02:55:03 10° NE 02:59:48 24° E 03:03:26 14° SE visible
11 Apr ? 04:35:57 10° N 04:41:24 37° WNW 04:46:24 11° SW visible
12 Apr ? 02:56:26 10° NE 03:01:14 25° E 03:04:57 14° SE visible
12 Apr ? 04:37:26 10° N 04:42:49 36° WNW 04:47:55 10° SW visible
13 Apr ? 02:57:50 10° NE 03:02:41 26° E 03:06:28 14° SE visible
13 Apr ? 04:38:55 10° N 04:44:14 35° WNW 04:49:21 10° SW visible
